Home > Weather > Karachi > Past weeks

Flag for Pakistan Weather for the Past 2 Weeks in Karachi, Sindh, Pakistan

Now
82 °F

Passing clouds.


Feels Like: 84 °F
Forecast: 81 / 92 °F
Wind: 6 mph from South

Location: Karachi Airport

Current Time: May 5, 2016 at 4:22:40 AM

Latest Report: May 5, 2016 at 3:55 AM


Visibility: 4 mi

Pressure: 29.68 "Hg

Humidity: 55%

Dew Point: 64 °F

Location of KarachiLocation

Historic Weather in Karachi — Graph

°F

Karachi Temperature Yesterday

Maximum temperature yesterday: 93 °F (at 12:25 PM)
Minimum temperature yesterday: 79 °F (at 3:55 AM)
Average temperature yesterday: 86 °F

High & Low Weather Summary for the Past Weeks

 TemperatureHumidityPressure
High102 °F (Apr 23, 12:55 PM)89% (Apr 29, 3:25 AM)29.92 "Hg (Apr 29, 3:25 AM)
Low75 °F (Apr 20, 5:55 AM)7% (Apr 23, 12:55 PM)29.59 "Hg (Apr 24, 3:25 PM)
Average86 °F57%29.73 "Hg
* Reported Apr 20 1:25 AM — May 5 1:55 AM, Karachi, Weather by CustomWeather, © 2016

Note: Actual official high and low records may vary slightly from our data, if they occured in-between our weather recording intervals... More about our weather records

Advertising

Karachi Weather History for the Previous 24 Hours

Scroll right to see more
 ConditionsComfort  
Time TempWeatherWind HumidityBarometerVisibility
1:55 AM
Thu, May 5
82 °FPassing clouds.6 mph58%29.74 "Hg4 mi
1:25 AM82 °FClear.7 mph58%29.77 "Hg4 mi
12:55 AM81 °FClear.8 mph62%29.80 "Hg4 mi
12:25 AM81 °FClear.8 mph62%29.80 "Hg4 mi
11:55 PM
Wed, May 4
82 °FPassing clouds.5 mph62%29.83 "Hg4 mi
11:25 PM82 °FPassing clouds.7 mph62%29.83 "Hg4 mi
10:55 PM82 °FPassing clouds.6 mph62%29.83 "Hg4 mi
10:25 PM82 °FPassing clouds.7 mph62%29.83 "Hg4 mi
7:55 PM84 °FPassing clouds.12 mph58%29.71 "Hg4 mi
7:25 PM84 °FPassing clouds.15 mph58%29.68 "Hg4 mi
6:55 PM86 °FPassing clouds.16 mph52%29.68 "Hg4 mi
6:25 PM86 °FPassing clouds.18 mph49%29.68 "Hg4 mi
5:55 PM90 °FPassing clouds.17 mph36%29.68 "Hg4 mi
4:55 PM90 °FPassing clouds.20 mph38%29.65 "Hg4 mi
4:25 PM91 °FPassing clouds.18 mph41%29.65 "Hg4 mi
3:55 PM91 °FPassing clouds.17 mph38%29.65 "Hg4 mi
3:25 PM91 °FPassing clouds.18 mph44%29.65 "Hg4 mi
2:55 PM93 °FPassing clouds.16 mph44%29.68 "Hg4 mi
2:25 PM93 °FPassing clouds.13 mph41%29.68 "Hg4 mi
1:55 PM93 °FScattered clouds.16 mph44%29.68 "Hg4 mi
1:25 PM93 °FScattered clouds.15 mph44%29.71 "Hg4 mi
12:55 PM93 °FScattered clouds.16 mph49%29.71 "Hg4 mi
12:25 PM93 °FScattered clouds.8 mph47%29.71 "Hg4 mi
11:25 AM91 °FScattered clouds.10 mph49%29.74 "Hg4 mi
10:55 AM91 °FScattered clouds.8 mph49%29.74 "Hg4 mi
10:25 AM90 °FScattered clouds.9 mph52%29.74 "Hg4 mi
8:55 AM84 °FScattered clouds.10 mph66%29.74 "Hg4 mi
7:55 AM82 °FPartly sunny.7 mph70%29.71 "Hg4 mi
4:55 AM79 °FPassing clouds.6 mph84%29.65 "Hg4 mi
4:25 AM79 °FPassing clouds.5 mph84%29.65 "Hg4 mi
Weather by CustomWeather, © 2016

See weather overviewHow to use our weather pages